Dewpoint
46 47 49 53 57 57 57 55 55 55 55 54 54 55 55 56 57 57 58 59 59 60 60 64 68 68 68 68 67 67 66 66
45 45 46 46 48 54 54 53 53 53 53 52 52 52 53 54 55 55 56 56 57 58 59 59 61 66 67 67 67 67 66 66
44 44 45 46 45 48 50 51 51 51 50 51 49 48 50 50 52 52 53 54 55 55 55 56 56 58 64 66 66 68 67 66
43 43 44 44 45 45 46 45 46 46 47 47 47 47 48 47 49 50 51 50 49 50 51 51 51 51 53 56 66 67 67 67
43 42 43 43 44 44 45 45 45 45 45 46 46 45 46 45 45 45 45 45 42 43 43 44 46 48 50 53 54 58 66 67
42 41 41 42 43 43 43 44 43 43 44 44 43 43 43 43 42 42 42 42 40 41 42 44 45 46 48 49 52 56 57 62
40 40 40 41 41 41 42 41 41 42 42 43 41 40 40 40 40 40 40 40 40 41 42 42 43 45 47 49 51 53 55 58
39 39 39 39 39 39 40 41 41 41 38 38 40 39 38 39 39 39 38 38 39 40 40 40 41 44 45 45 46 47 50 52
39 38 37 37 37 38 39 39 39 38 36 37 37 37 36 38 38 37 37 37 38 39 39 40 39 40 41 42 44 45 47 49
37 37 37 36 37 38 37 37 37 35 35 36 35 36 35 37 36 36 36 36 36 37 37 37 39 39 39 39 42 44 46 46
35 36 36 36 36 37 37 35 35 34 34 34 34 35 35 34 35 35 35 34 34 35 35 36 37 38 39 39 39 41 42 43
35 35 35 35 35 35 34 34 34 34 32 33 33 34 34 33 33 33 33 32 33 34 34 35 36 37 38 39 40 41 41 45
34 34 34 34 34 34 33 32 32 32 32 32 32 33 32 31 30 31 32 32 31 33 34 34 36 37 37 38 39 40 41 42
34 34 34 33 33 33 33 33 32 32 32 31 32 32 32 31 29 30 30 31 31 32 33 34 35 36 37 37 37 39 42 40
33 33 33 33 33 33 32 32 31 30 30 30 31 31 30 31 29 30 29 30 30 31 33 32 33 35 36 38 37 35 38 42
34 33 32 32 33 32 30 29 28 30 30 30 30 30 29 29 31 30 28 30 30 29 30 32 33 32 34 37 36 38 38 36
33 32 31 31 31 30 30 28 28 28 28 28 29 30 28 28 29 29 28 29 30 29 29 31 31 31 32 33 34 36 38 40
32 31 30 30 30 29 28 27 25 25 26 26 27 27 27 26 27 27 27 27 29 28 27 29 30 30 30 30 31 33 34 35
31 30 29 29 28 27 25 23 23 23 25 25 26 25 24 24 25 26 26 26 27 27 25 26 27 28 29 29 30 32 32 33
30 28 28 27 27 24 24 24 24 23 23 24 25 25 24 24 24 24 24 24 24 25 25 24 25 26 27 28 29 30 31 32
Lifted_Index
-0 1 3 5 7 8 8 8 8 8 8 9 8 6 4 2 1 0 -1 -2 -2 -2 -3 -3 -4 -4 -4 -4 -4 -4 -4 -3
3 4 6 8 9 9 9 9 9 9 9 10 10 9 8 7 6 5 3 2 1 -0 -1 -2 -3 -3 -4 -4 -4 -4 -4 -4
8 9 10 11 11 11 11 11 11 11 11 11 11 11 11 11 11 10 9 7 7 5 3 1 0 -1 -2 -3 -3 -4 -4 -4
11 11 11 12 11 11 11 11 11 11 11 11 12 12 12 12 12 12 11 11 11 10 9 7 6 4 2 -0 -2 -3 -3 -3
11 11 11 11 11 11 11 11 11 11 11 11 11 12 12 12 12 12 12 12 12 11 11 11 10 9 7 4 2 -0 -2 -2
11 11 11 11 11 11 11 11 11 11 11 11 11 11 11 11 12 12 12 12 12 11 11 11 11 11 11 9 7 4 1 -0
10 11 11 11 11 11 11 11 11 11 12 12 12 11 11 11 11 11 12 12 12 11 11 11 11 11 11 11 10 8 6 4
10 11 11 11 11 11 11 11 11 12 12 12 12 12 12 11 11 11 12 12 12 12 12 11 11 11 11 11 11 11 10 8
10 11 11 11 11 11 11 11 11 12 12 12 12 12 12 12 12 12 12 12 12 12 12 12 12 12 11 11 12 11 11 11
10 10 11 11 11 11 11 12 12 12 12 13 13 13 13 12 12 12 12 12 12 12 12 12 12 12 12 12 12 12 11 11
10 10 11 11 11 11 12 12 12 13 13 13 13 13 13 13 13 13 13 13 13 12 12 12 12 12 12 12 12 11 11 11
10 10 10 11 11 12 12 12 12 13 13 14 14 14 14 14 13 13 13 13 13 13 13 12 12 12 12 11 11 11 11 11
9 10 10 11 11 12 12 12 12 13 14 14 14 14 14 14 14 14 14 14 14 14 14 13 13 13 12 11 11 11 11 11
8 9 10 11 12 12 12 13 13 14 14 15 14 14 14 14 13 13 14 14 14 15 15 14 13 14 13 11 10 10 10 11
8 9 10 11 12 12 13 13 13 14 15 15 15 14 14 13 13 13 13 14 14 15 15 15 14 15 15 13 12 11 10 10
8 9 10 11 12 13 13 13 13 13 14 15 15 15 15 14 13 13 13 13 13 14 15 15 15 15 15 15 14 13 11 10
8 8 10 11 13 13 13 13 13 13 13 14 14 15 15 15 14 13 13 12 12 13 14 14 14 14 14 14 14 14 13 12
8 8 9 11 13 13 13 13 13 13 13 13 13 14 14 15 15 14 14 13 12 13 13 14 14 14 14 13 13 13 13 13
7 8 9 11 13 14 14 14 13 13 12 12 13 13 14 15 15 15 15 14 13 13 13 14 14 14 14 13 13 13 13 12
7 7 9 11 13 14 14 14 14 13 13 13 13 13 14 15 16 16 16 15 15 14 13 13 14 14 14 13 13 13 13 12